Change the Weather History Date:

Friday, September 7, 2012

  Actual Average (KHTO) Record (KHTO)
Temperature  
Mean Temperature 75 °F -  
Max Temperature 81 °F 76 °F 93 °F (1983)
Min Temperature 69 °F 57 °F 41 °F (1938)
Cooling Degree Days 10    
Growing Degree Days 25 (Base 50)    
Moisture  
Dew Point 71 °F    
Average Humidity 89    
Maximum Humidity 100    
Minimum Humidity 74    
Precipitation  
Precipitation 0.00 in - - ()
Sea Level Pressure  
Sea Level Pressure 29.93 in    
Wind  
Wind Speed 3 mph (SSW)    
Max Wind Speed 7 mph    
Max Gust Speed -    
Averages and records for this station are not official NWS values.
T = Trace of Precipitation, MM = Missing Value Source: NWS Daily Summary

Daily Weather History Graph

Daily Weather History Graph

Search for Another Location

Airport or City:

Trip Planner

Search our weather history database for the weather conditions in past years. The results will help you decide how hot, cold, wet, or windy it might be!

Date:

Astronomy

Sep. 07, 2012 Rise Set
Actual Time 6:20 AM EDT 7:09 PM EDT
Civil Twilight 5:52 AM EDT 7:37 PM EDT
Nautical Twilight 5:19 AM EDT 8:10 PM EDT
Astronomical Twilight 4:45 AM EDT 8:44 PM EDT
Moon 10:59 PM EDT (9/7) 1:13 PM EDT (9/7)
Length of Visible Light 13h 44m
Length of Day
12h 48m
Waning Gibbous, 58% of the Moon is Illuminated
Sep 7
Waning Gibbous
Sep 8
Last Quarter
Sep 15
New
Sep 22
First Quarter
Sep 29
Full

Hourly Weather History & Observations

Time (EDT) Temp. Heat Index Dew Point Humidity Pressure Visibility Wind Dir Wind Speed Gust Speed Precip Events Conditions
12:54 AM 72.0 °F - 70.0 °F 93% 29.91 in - SSW 3.5 mph - N/A   Unknown
1:54 AM 71.1 °F - 69.1 °F 93% 29.90 in - Calm Calm - N/A   Unknown
2:54 AM 70.0 °F - 69.1 °F 97% 29.89 in - Calm Calm - N/A   Unknown
3:54 AM 69.1 °F - 69.1 °F 100% 29.90 in - Calm Calm - N/A   Unknown
4:54 AM 69.1 °F - 68.0 °F 96% 29.91 in - Calm Calm - N/A   Unknown
5:54 AM 70.0 °F - 70.0 °F 100% 29.91 in - Calm Calm - N/A   Unknown
6:54 AM 70.0 °F - 70.0 °F 100% 29.94 in - Calm Calm - N/A   Unknown
7:54 AM 72.0 °F - 71.1 °F 97% 29.94 in - Variable 3.5 mph - N/A   Unknown
8:54 AM 73.9 °F - 72.0 °F 93% 29.95 in - Calm Calm - N/A   Unknown
9:54 AM 75.9 °F - 72.0 °F 87% 29.95 in - Variable 4.6 mph - N/A   Unknown
10:54 AM 77.0 °F - 72.0 °F 84% 29.95 in - Variable 4.6 mph - N/A   Unknown
11:54 AM 79.0 °F - 71.1 °F 77% 29.94 in - Variable 4.6 mph - N/A   Unknown
12:54 PM 81.0 °F 85.2 °F 72.0 °F 74% 29.94 in - Variable 5.8 mph - N/A   Unknown
1:54 PM 79.0 °F - 72.0 °F 79% 29.95 in - South 6.9 mph - N/A   Unknown
2:00 PM - - - N/A% - - North - - N/A   Unknown
2:54 PM 79.0 °F - 72.0 °F 79% 29.93 in - Variable 4.6 mph - N/A   Unknown
4:54 PM 78.1 °F - 72.0 °F 81% 29.93 in - SSW 6.9 mph - N/A   Unknown
5:54 PM 75.9 °F - 71.1 °F 85% 29.93 in - Variable 5.8 mph - N/A   Unknown
6:54 PM 75.0 °F - 71.1 °F 87% 29.92 in - SSW 6.9 mph - N/A   Unknown
7:54 PM 73.9 °F - 71.1 °F 91% 29.94 in - South 3.5 mph - N/A   Unknown
8:54 PM 73.9 °F - 71.1 °F 91% 29.94 in - Variable 3.5 mph - N/A   Unknown
9:54 PM 73.9 °F - 70.0 °F 87% 29.93 in - South 4.6 mph - N/A   Unknown
10:54 PM 73.0 °F - 71.1 °F 93% 29.92 in - Variable 3.5 mph - N/A   Unknown
11:54 PM 73.0 °F - 71.1 °F 93% 29.91 in - Variable 5.8 mph - N/A   Unknown